When you browse on this site, cookies collect data to enhance your experience and personalize the content and advertising you see.
Visit our Privacy Policy to learn more. By continuing to use the site, you agree to this use of cookies and data.
  • In United Kingdom
  • List of Countries
  • For 7 days
  • Water Temperature
  • Weather Map
  • Weather Widgets
  • user-avatar
    Login

    Hourly Weather Saarbrucken

    Today, 26 August, Monday

    Time Temperature Precipitation Wind Pressure Humidity
    00:00 +18°C° 0 mm 0 mps 742 mmHg 69%
    01:00 +18°C° 0 mm 0 mps 742 mmHg 71%
    02:00 +17°C° 0 mm 0 mps 741 mmHg 73%
    03:00 +17°C° 0 mm 0 mps 741 mmHg 75%
    04:00 +18°C° 0 mm 0 mps 741 mmHg 75%
    05:00 +18°C° 0 mm 0 mps 742 mmHg 74%
    06:00 +19°C° 0 mm 0 mps 742 mmHg 74%
    07:00 +21°C° 0 mm 0 mps 742 mmHg 66%
    08:00 +26°C° 0 mm 1 mps 742 mmHg 58%
    09:00 +28°C° 0 mm 1 mps 742 mmHg 50%
    10:00 +29°C° 0 mm 1 mps 742 mmHg 45%
    11:00 +30°C° 0 mm 1 mps 742 mmHg 41%
    12:00 +32°C° 0 mm 1 mps 742 mmHg 36%
    13:00 +32°C° 0 mm 1 mps 741 mmHg 36%
    14:00 +32°C° 0 mm 1 mps 741 mmHg 35%
    15:00 +32°C° 0 mm 1 mps 740 mmHg 34%
    16:00 +30°C° 0 mm 1 mps 740 mmHg 42%
    17:00 +28°C° 0 mm 1 mps 740 mmHg 49%
    18:00 +26°C° 0 mm 1 mps 740 mmHg 56%
    19:00 +25°C° 0 mm 1 mps 740 mmHg 60%
    20:00 +21°C° 0 mm 0 mps 740 mmHg 63%
    21:00 +20°C° 0 mm 0 mps 740 mmHg 67%
    22:00 +20°C° 0 mm 0 mps 740 mmHg 69%
    23:00 +19°C° 0 mm 0 mps 740 mmHg 71%

    Tomorrow, 27 August, Tuesday

    Time Temperature Precipitation Wind Pressure Humidity
    00:00 +21°C° 0 mm 1 mps 740 mmHg 74%
    01:00 +21°C° 0 mm 1 mps 740 mmHg 75%
    02:00 +20°C° 0 mm 1 mps 740 mmHg 77%
    03:00 +20°C° 0 mm 1 mps 740 mmHg 79%
    04:00 +18°C° 0 mm 0 mps 740 mmHg 79%
    05:00 +19°C° 0 mm 0 mps 740 mmHg 78%
    06:00 +20°C° 0 mm 0 mps 740 mmHg 78%
    07:00 +24°C° 0 mm 1 mps 740 mmHg 70%
    08:00 +26°C° 0 mm 1 mps 740 mmHg 63%
    09:00 +28°C° 0 mm 2 mps 740 mmHg 56%
    10:00 +29°C° 0 mm 2 mps 740 mmHg 50%
    11:00 +30°C° 0 mm 2 mps 740 mmHg 44%
    12:00 +32°C° 0 mm 2 mps 740 mmHg 38%
    13:00 +32°C° 0 mm 2 mps 740 mmHg 37%
    14:00 +32°C° 0 mm 2 mps 740 mmHg 36%
    15:00 +32°C° 0 mm 2 mps 739 mmHg 35%
    16:00 +30°C° 0 mm 1 mps 739 mmHg 41%
    17:00 +28°C° 0 mm 1 mps 739 mmHg 47%
    18:00 +26°C° 0 mm 1 mps 739 mmHg 53%
    19:00 +23°C° 0 mm 0 mps 739 mmHg 54%
    20:00 +22°C° 0 mm 0 mps 740 mmHg 56%
    21:00 +22°C° 0 mm 0 mps 740 mmHg 57%
    22:00 +21°C° 0 mm 0 mps 740 mmHg 60%
    23:00 +20°C° 0 mm 0 mps 740 mmHg 63%

    Day after tomorrow, 28 August, Wednesday

    Time Temperature Precipitation Wind Pressure Humidity
    00:00 +19°C° 0 mm 0 mps 739 mmHg 66%
    01:00 +19°C° 0 mm 0 mps 739 mmHg 68%
    02:00 +18°C° 0 mm 0 mps 739 mmHg 71%
    03:00 +18°C° 0 mm 0 mps 739 mmHg 73%
    04:00 +18°C° 0 mm 0 mps 739 mmHg 73%
    05:00 +19°C° 0 mm 0 mps 739 mmHg 73%
    06:00 +21°C° 0 mm 1 mps 739 mmHg 73%
    07:00 +24°C° 0 mm 1 mps 739 mmHg 65%
    08:00 +26°C° 0 mm 1 mps 740 mmHg 58%
    09:00 +28°C° 0 mm 2 mps 740 mmHg 51%
    10:00 +29°C° 0 mm 2 mps 740 mmHg 47%
    11:00 +31°C° 0 mm 2 mps 740 mmHg 43%
    12:00 +33°C° 0 mm 3 mps 740 mmHg 39%
    13:00 +33°C° 0 mm 3 mps 739 mmHg 39%
    14:00 +33°C° 0 mm 3 mps 739 mmHg 39%
    15:00 +33°C° 0 mm 3 mps 739 mmHg 39%
    16:00 +31°C° 0 mm 2 mps 739 mmHg 45%
    17:00 +29°C° 0 mm 2 mps 739 mmHg 51%
    18:00 +27°C° 0 mm 2 mps 738 mmHg 58%
    19:00 +25°C° 0.7 mm 2 mps 739 mmHg 68%
    20:00 +23°C° 0.7 mm 2 mps 739 mmHg 78%
    21:00 +20°C° 0.7 mm 3 mps 739 mmHg 88%
    22:00 +20°C° 0.1 mm 2 mps 739 mmHg 87%
    23:00 +21°C° 0.1 mm 1 mps 739 mmHg 87%

    29 August, Thursday

    Time Temperature Precipitation Wind Pressure Humidity
    00:00 +21°C° 0.1 mm 1 mps 739 mmHg 86%
    01:00 +21°C° 0 mm 1 mps 739 mmHg 86%
    02:00 +21°C° 0 mm 1 mps 739 mmHg 86%
    03:00 +21°C° 0 mm 1 mps 739 mmHg 86%
    04:00 +21°C° 0.2 mm 1 mps 739 mmHg 87%
    05:00 +20°C° 0.2 mm 2 mps 739 mmHg 88%
    06:00 +19°C° 0.2 mm 2 mps 740 mmHg 89%
    07:00 +21°C° 0 mm 2 mps 740 mmHg 83%
    08:00 +22°C° 0 mm 3 mps 741 mmHg 77%
    09:00 +25°C° 0 mm 4 mps 741 mmHg 72%
    10:00 +26°C° 0 mm 4 mps 742 mmHg 67%
    11:00 +27°C° 0 mm 4 mps 742 mmHg 63%
    12:00 +28°C° 0 mm 4 mps 742 mmHg 59%
    13:00 +28°C° 0.1 mm 4 mps 742 mmHg 57%
    14:00 +28°C° 0.1 mm 4 mps 742 mmHg 55%
    15:00 +28°C° 0.1 mm 4 mps 742 mmHg 53%
    16:00 +26°C° 0 mm 4 mps 742 mmHg 58%
    17:00 +24°C° 0 mm 3 mps 742 mmHg 63%
    18:00 +22°C° 0 mm 3 mps 742 mmHg 68%
    19:00 +20°C° 0 mm 3 mps 743 mmHg 71%
    20:00 +19°C° 0 mm 2 mps 743 mmHg 74%
    21:00 +17°C° 0 mm 2 mps 743 mmHg 76%
    22:00 +17°C° 0 mm 2 mps 743 mmHg 78%
    23:00 +16°C° 0 mm 1 mps 743 mmHg 80%

    30 August, Friday

    Time Temperature Precipitation Wind Pressure Humidity
    00:00 +15°C° 0 mm 1 mps 744 mmHg 83%
    01:00 +15°C° 0 mm 1 mps 744 mmHg 84%
    02:00 +15°C° 0 mm 1 mps 744 mmHg 86%
    03:00 +14°C° 0 mm 1 mps 744 mmHg 87%
    04:00 +15°C° 0 mm 1 mps 744 mmHg 86%
    05:00 +15°C° 0 mm 1 mps 744 mmHg 84%
    06:00 +15°C° 0 mm 1 mps 744 mmHg 83%
    07:00 +19°C° 0 mm 1 mps 744 mmHg 75%
    08:00 +21°C° 0 mm 1 mps 744 mmHg 67%
    09:00 +24°C° 0 mm 1 mps 744 mmHg 59%
    10:00 +25°C° 0 mm 1 mps 744 mmHg 54%
    11:00 +27°C° 0 mm 1 mps 744 mmHg 50%
    12:00 +26°C° 0 mm 0 mps 743 mmHg 45%
    13:00 +28°C° 0 mm 1 mps 743 mmHg 44%
    14:00 +28°C° 0 mm 1 mps 743 mmHg 43%
    15:00 +28°C° 0 mm 1 mps 742 mmHg 42%
    16:00 +26°C° 0 mm 1 mps 742 mmHg 49%
    17:00 +25°C° 0 mm 1 mps 742 mmHg 55%
    18:00 +23°C° 0 mm 1 mps 742 mmHg 61%
    19:00 +22°C° 0 mm 1 mps 742 mmHg 65%
    20:00 +20°C° 0 mm 1 mps 742 mmHg 69%
    21:00 +19°C° 0 mm 1 mps 742 mmHg 73%
    22:00 +19°C° 0 mm 1 mps 742 mmHg 75%
    23:00 +18°C° 0 mm 1 mps 741 mmHg 78%

    31 August, Saturday

    Time Temperature Precipitation Wind Pressure Humidity
    00:00 +18°C° 0 mm 1 mps 741 mmHg 81%
    01:00 +18°C° 0 mm 1 mps 741 mmHg 83%
    02:00 +15°C° 0 mm 0 mps 741 mmHg 85%
    03:00 +15°C° 0 mm 0 mps 741 mmHg 87%
    04:00 +15°C° 0 mm 0 mps 741 mmHg 86%
    05:00 +16°C° 0 mm 0 mps 741 mmHg 84%
    06:00 +17°C° 0 mm 0 mps 741 mmHg 83%
    07:00 +19°C° 0 mm 0 mps 741 mmHg 75%
    08:00 +23°C° 0 mm 1 mps 741 mmHg 67%
    09:00 +25°C° 0 mm 1 mps 742 mmHg 60%
    10:00 +26°C° 0 mm 1 mps 741 mmHg 54%
    11:00 +27°C° 0 mm 2 mps 741 mmHg 48%
    12:00 +28°C° 0 mm 2 mps 741 mmHg 43%
    13:00 +28°C° 0 mm 2 mps 741 mmHg 41%
    14:00 +28°C° 0 mm 2 mps 740 mmHg 39%
    15:00 +28°C° 0 mm 3 mps 740 mmHg 37%
    16:00 +26°C° 0 mm 2 mps 740 mmHg 42%
    17:00 +24°C° 0 mm 2 mps 740 mmHg 47%
    18:00 +21°C° 0 mm 2 mps 740 mmHg 52%
    19:00 +20°C° 0 mm 2 mps 741 mmHg 56%
    20:00 +19°C° 0 mm 1 mps 741 mmHg 60%
    21:00 +18°C° 0 mm 1 mps 741 mmHg 64%
    22:00 +16°C° 0 mm 1 mps 741 mmHg 68%
    23:00 +16°C° 0 mm 1 mps 741 mmHg 71%
    Show more